Napa County, CA

5:31 PM PDT on June 25, 2017 (GMT -0700)
Napa County

Weather History for KAPC - January, 2014

Change the Weather History Date:

Thursday, January 23, 2014

  Actual Average Record
Temperature  
Mean Temperature 51 °F 46 °F  
Max Temperature 73 °F 56 °F 73 °F (2014)
Min Temperature 29 °F 37 °F 26 °F (2007)
Degree Days  
Heating Degree Days 14    
Month to date heating degree days 386  
Since 1 July heating degree days 1731  
Cooling Degree Days 0    
Month to date cooling degree days 0  
Year to date cooling degree days 0  
Growing Degree Days 1 (Base 50)    
Moisture  
Dew Point 28 °F    
Average Humidity 53    
Maximum Humidity 92    
Minimum Humidity 13    
Precipitation  
Precipitation 0.00 in - 1.56 in (2000)
Month to date precipitation T  
Year to date precipitation T  
Since 1 July precipitation 2.20  
Sea Level Pressure  
Sea Level Pressure 29.90 in    
Wind  
Wind Speed 7 mph (East)    
Max Wind Speed 20 mph    
Max Gust Speed 22 mph    
Visibility 9 miles    
Events      
T = Trace of Precipitation, MM = Missing Value Source: NWS Daily Summary

Daily Weather History Graph

Daily Weather History Graph

Search for Another Location

Airport or City:

Trip Planner

Search our weather history database for the weather conditions in past years. The results will help you decide how hot, cold, wet, or windy it might be!

Date:

Astronomy

Jan. 23, 2014 Rise Set
Actual Time 7:20 AM PST 5:21 PM PST
Civil Twilight 6:52 AM PST 5:50 PM PST
Nautical Twilight 6:20 AM PST 6:22 PM PST
Astronomical Twilight 5:48 AM PST 6:53 PM PST
Moon No Moon Rise 11:05 AM PST (1/23)
Length of Visible Light 10h 58m
Length of Day
10h 01m
Waning Gibbous, 54% of the Moon is Illuminated
Jan 23
Waning Gibbous
Jan 23
Last Quarter
Jan 30
New
Feb 6
First Quarter
Feb 14
Full

Hourly Weather History & Observations

Time (PST) Temp. Windchill Dew Point Humidity Pressure Visibility Wind Dir Wind Speed Gust Speed Precip Events Conditions
12:54 AM 36.0 °F - 30.0 °F 79% 29.90 in 10.0 mi Calm Calm - N/A   Clear
1:54 AM 32.0 °F - 28.0 °F 85% 29.89 in 10.0 mi Calm Calm - N/A   Clear
2:54 AM 30.9 °F - 28.0 °F 89% 29.91 in 10.0 mi Calm Calm - N/A   Clear
3:54 AM 33.1 °F - 28.9 °F 85% 29.90 in 10.0 mi Calm Calm - N/A   Clear
4:54 AM 30.9 °F - 28.9 °F 92% 29.89 in 10.0 mi Calm Calm - N/A   Clear
5:54 AM 32.0 °F 25.6 °F 28.0 °F 85% 29.89 in 10.0 mi WNW 6.9 mph - N/A   Clear
6:54 AM 33.1 °F 27.7 °F 28.9 °F 85% 29.89 in 10.0 mi WSW 5.8 mph - N/A   Clear
7:54 AM 34.0 °F - 30.9 °F 89% 29.90 in 10.0 mi Calm Calm - N/A   Clear
8:54 AM 50.0 °F - 33.1 °F 52% 29.91 in 10.0 mi East 9.2 mph - N/A   Clear
9:54 AM 60.1 °F - 26.1 °F 27% 29.91 in 10.0 mi ESE 9.2 mph - N/A   Clear
10:54 AM 63.0 °F - 25.0 °F 24% 29.90 in 10.0 mi East 9.2 mph - N/A   Clear
11:54 AM 68.0 °F - 24.1 °F 19% 29.87 in 10.0 mi East 6.9 mph - N/A   Clear
12:54 PM 72.0 °F - 21.0 °F 15% 29.85 in 10.0 mi East 11.5 mph - N/A   Clear
1:54 PM 72.0 °F - 18.0 °F 13% 29.84 in 10.0 mi ENE 12.7 mph - N/A   Clear
2:54 PM 72.0 °F - 19.0 °F 13% 29.84 in 10.0 mi East 11.5 mph 20.7 mph N/A   Clear
3:54 PM 68.0 °F - 27.0 °F 21% 29.86 in 10.0 mi East 15.0 mph - N/A   Clear
4:54 PM 62.1 °F - 30.0 °F 30% 29.86 in 10.0 mi East 9.2 mph - N/A   Clear
5:54 PM 54.0 °F - 30.9 °F 41% 29.88 in 9.0 mi ESE 9.2 mph - N/A   Clear
6:54 PM 48.0 °F - 30.9 °F 52% 29.90 in 9.0 mi East 6.9 mph - N/A   Clear
7:54 PM 46.9 °F - 30.9 °F 54% 29.92 in 7.0 mi NE 9.2 mph - N/A   Clear
8:54 PM 55.9 °F - 34.0 °F 44% 29.94 in 6.0 mi East 8.1 mph - N/A   Haze
9:54 PM 53.1 °F - 33.1 °F 47% 29.96 in 6.0 mi ESE 6.9 mph - N/A   Haze
10:54 PM 46.0 °F 41.9 °F 33.1 °F 61% 29.99 in 6.0 mi North 8.1 mph - N/A   Haze
11:54 PM 46.0 °F 43.9 °F 32.0 °F 58% 30.00 in 7.0 mi North 4.6 mph - N/A   Clear